CAPE
1 0 0 0 0 0 0 0 0 0 0 0 0 0 0 0 0 0 0 0 0 0 0 0 0 0 0 0 0 0 0 0 0 0 0 0 0 0 0 0 0 0 0 0
0 0 0 0 0 0 0 0 0 0 0 0 0 0 0 0 0 0 0 0 0 0 0 0 0 0 0 0 0 0 0 0 0 0 0 0 0 0 0 0 0 0 0 0
1 0 0 0 0 0 0 0 0 0 0 0 0 0 0 0 0 0 0 0 0 0 0 0 0 0 0 0 0 0 0 0 0 0 0 0 0 0 0 0 0 0 0 0
0 0 0 0 0 0 0 0 0 0 0 0 0 0 0 0 0 0 0 0 0 0 0 0 0 0 0 0 0 0 0 0 0 0 0 0 0 0 0 0 0 0 0 0
0 0 0 0 0 0 0 0 0 0 0 0 0 0 0 0 0 0 0 0 0 0 0 0 0 0 0 0 0 0 0 0 0 0 0 0 0 0 0 0 0 0 0 0
0 0 0 0 0 0 0 0 0 0 0 0 0 0 0 0 0 0 0 0 0 0 0 0 0 0 0 0 0 0 0 0 0 0 0 0 0 0 0 0 0 0 0 0
0 0 0 0 0 0 0 0 0 0 0 0 0 0 0 0 0 0 0 0 0 0 0 0 0 0 0 0 0 0 0 0 0 0 0 0 0 0 0 0 0 0 0 0
0 0 0 0 0 0 0 0 0 0 0 0 0 0 0 0 0 0 0 0 0 0 0 0 0 0 0 0 0 0 0 0 0 0 0 0 0 0 0 0 0 0 0 0
0 0 0 0 0 0 0 0 0 0 0 0 0 0 0 0 0 0 0 0 0 0 0 0 0 0 0 0 0 0 0 0 0 0 0 0 0 0 0 0 0 0 0 0
0 0 0 0 0 0 0 0 0 0 0 0 0 0 0 0 0 0 0 0 0 0 0 0 0 0 0 0 0 0 0 0 0 0 0 0 0 0 0 0 0 0 0 0
0 0 0 0 0 0 0 0 0 0 0 0 0 0 0 0 0 0 0 0 0 0 0 0 0 0 0 0 0 0 0 0 0 0 0 0 0 0 0 0 0 0 0 0
0 0 0 0 0 0 0 0 0 0 0 0 0 0 0 0 0 0 0 0 0 0 0 0 0 0 0 0 0 0 0 0 0 0 0 0 0 0 0 0 0 0 0 0
0 0 0 0 0 0 0 0 0 0 0 0 0 0 0 0 0 0 0 0 0 0 0 0 0 0 0 0 0 0 0 0 0 0 0 0 0 0 0 0 0 0 0 0
0 0 0 0 0 0 0 0 0 0 0 0 0 0 0 0 0 0 0 0 0 0 0 0 0 0 0 0 0 0 0 0 0 0 0 0 0 0 0 0 0 0 0 0
0 0 0 0 0 0 0 0 0 0 0 0 0 0 0 0 0 0 0 0 0 0 0 0 0 0 0 0 0 0 0 0 0 0 0 0 0 0 0 0 0 0 0 0
0 0 0 0 0 0 0 0 0 0 0 0 0 0 0 0 0 0 0 0 0 0 0 0 0 0 0 0 0 0 0 0 0 0 0 0 0 0 0 0 0 0 0 0
0 0 0 0 0 0 0 0 0 0 0 0 0 0 0 0 0 0 0 0 0 0 0 0 0 0 0 0 0 0 0 0 0 0 0 0 0 0 0 0 0 0 0 0
0 0 0 0 0 0 0 0 0 0 0 0 0 0 0 0 0 0 0 0 0 0 0 0 0 0 0 0 0 0 0 0 0 0 0 0 0 0 0 0 0 0 0 0
0 0 0 0 0 0 0 0 0 0 0 0 0 0 0 0 0 0 0 0 0 0 0 0 0 0 0 0 0 0 0 0 0 0 0 0 0 0 0 0 0 0 0 0
1 0 0 0 0 0 0 0 0 0 0 0 0 0 0 0 0 0 0 0 0 0 0 0 0 0 0 0 0 0 0 0 0 0 0 0 0 0 0 0 0 0 0 0
0 0 0 0 0 0 0 0 0 0 0 0 0 0 0 0 0 0 0 0 0 0 0 0 0 0 0 0 0 0 0 0 0 0 0 0 0 0 0 0 0 0 0 0
0 0 0 0 0 0 0 0 0 0 0 0 0 0 0 0 0 0 0 0 0 0 0 0 0 0 0 0 0 0 0 0 0 0 0 0 0 0 0 0 0 0 0 0
4 0 0 0 0 0 0 0 0 0 0 0 0 0 0 0 0 0 0 0 0 0 0 0 0 0 0 0 0 0 0 0 0 0 0 0 0 0 0 0 0 0 0 0
3 0 0 0 0 0 0 0 0 0 0 0 0 0 0 0 0 0 0 0 0 0 0 0 0 0 0 0 0 0 0 0 0 0 0 0 0 0 0 0 0 0 0 0
0 0 0 0 0 0 0 0 0 0 0 0 0 0 0 0 0 0 0 0 0 0 0 0 0 0 0 0 0 0 0 0 0 0 0 0 0 0 0 0 0 0 0 0
0 0 0 0 0 0 0 0 0 0 0 0 0 0 0 0 0 0 0 0 0 0 0 0 0 0 0 0 0 0 0 0 0 0 0 0 0 0 0 0 0 0 0 0
CIN
-0 -0 -0 -0 -0 -0 -0 -0 -0 -0 -0 -0 -0 -0 -0 -0 -0 -0 -0 -0 -0 -0 -0 -0 -0 -0 -0 -0 -0 -0 -0 -0 -0 -0 -0 -0 -0 -0 -0 -0 -0 -0 -0 -0
-0 -0 -0 -0 -0 -0 -0 -0 -0 -0 -0 -0 -0 -0 -0 -0 -0 -0 -0 -0 -0 -0 -0 -0 -0 -0 -0 -0 -0 -0 -0 -0 -0 -0 -0 -0 -0 -0 -0 -0 -0 -0 -0 -0
-0 -0 -0 -0 -0 -0 -0 -0 -0 -0 -0 -0 -0 -0 -0 -0 -0 -0 -0 -0 -0 -0 -0 -0 -0 -0 -0 -0 -0 -0 -0 -0 -0 -0 -0 -0 -0 -0 -0 -0 -0 -0 -0 -0
-0 -0 -0 -0 -0 -0 -0 -0 -0 -0 -0 -0 -0 -0 -0 -0 -0 -0 -0 -0 -0 -0 -0 -0 -0 -0 -0 -0 -0 -0 -0 -0 -0 -0 -0 -0 -0 -0 -0 -0 -0 -0 -0 -0
-0 -0 -2 -0 -0 -0 -0 -0 -0 -0 -0 -0 -0 -0 -0 -0 -0 -0 -0 -0 -0 -0 -0 -0 -0 -0 -0 -0 -0 -0 -0 -0 -0 -0 -0 -0 -0 -0 -0 -0 -0 -0 -0 -0
-0 -0 -0 -0 -0 -0 -0 -0 -0 -0 -0 -0 -0 -0 -0 -0 -0 -0 -0 -0 -0 -0 -0 -0 -0 -0 -0 -0 -0 -0 -0 -0 -0 -0 -0 -0 -0 -0 -0 -0 -0 -0 -0 -0
-0 -0 -0 -0 -0 -0 -0 -0 -0 -0 -0 -0 -0 -0 -0 -0 -0 -0 -0 -0 -0 -0 -0 -0 -0 -0 -0 -0 -0 -0 -0 -0 -0 -0 -0 -0 -0 -0 -0 -0 -0 -0 -0 -0
-0 -0 -0 -0 -0 -0 -0 -0 -0 -0 -0 -0 -0 -0 -0 -0 -0 -0 -0 -0 -0 -0 -0 -0 -0 -0 -0 -0 -0 -0 -0 -0 -0 -0 -0 -0 -0 -0 -0 -0 -0 -0 -0 -0
-0 -0 -0 -0 -0 -0 -0 -0 -0 -0 -0 -0 -0 -0 -0 -0 -0 -0 -0 -0 -0 -0 -0 -0 -0 -0 -0 -0 -0 -0 -0 -0 -0 -0 -0 -0 -0 -0 -0 -0 -0 -0 -0 -0
-0 -0 -0 -0 -0 -0 -0 -0 -0 -0 -0 -0 -0 -0 -0 -0 -0 -0 -0 -0 -0 -0 -0 -0 -0 -0 -0 -0 -0 -0 -0 -0 -0 -0 -0 -0 -0 -0 -0 -0 -0 -0 -0 -0
-0 -0 -0 -0 -0 -0 -0 -0 -0 -0 -0 -0 -0 -0 -0 -0 -0 -0 -0 -0 -0 -0 -0 -0 -0 -0 -0 -0 -0 -0 -0 -0 -0 -0 -0 -0 -0 -0 -0 -0 -0 -0 -0 -0
-0 -0 -0 -0 -0 -0 -0 -0 -0 -0 -0 -0 -0 -0 -0 -0 -0 -0 -0 -0 -0 -0 -0 -0 -0 -0 -0 -0 -0 -0 -0 -0 -0 -0 -0 -0 -0 -0 -0 -0 -0 -0 -0 -0
-0 -0 -0 -0 -0 -0 -0 -0 -0 -0 -0 -0 -0 -0 -0 -0 -0 -0 -0 -0 -0 -0 -0 -0 -0 -0 -0 -0 -0 -0 -0 -0 -0 -0 -0 -0 -0 -0 -0 -0 -0 -0 -0 -0
-0 -0 -0 -0 -0 -0 -0 -0 -0 -0 -0 -0 -0 -0 -0 -0 -0 -0 -0 -0 -0 -0 -0 -0 -0 -0 -0 -0 -0 -0 -0 -0 -0 -0 -0 -0 -0 -0 -0 -0 -0 -0 -0 -0
-0 -0 -0 -0 -0 -0 -0 -0 -0 -0 -0 -0 -0 -0 -0 -0 -0 -0 -0 -0 -0 -0 -0 -0 -0 -0 -0 -0 -0 -0 -0 -0 -0 -0 -0 -0 -0 -0 -0 -0 -0 -0 -0 -0
-0 -0 -0 -0 -0 -0 -0 -0 -0 -0 -0 -0 -0 -0 -0 -0 -0 -0 -0 -0 -0 -0 -0 -0 -0 -0 -0 -0 -0 -0 -0 -0 -0 -0 -0 -0 -0 -0 -0 -0 -0 -0 -0 -0
-0 -0 -0 -0 -0 -0 -0 -0 -0 -0 -0 -0 -0 -0 -0 -0 -0 -0 -0 -0 -0 -0 -0 -0 -0 -0 -0 -0 -0 -0 -0 -0 -0 -0 -0 -0 -0 -0 -0 -0 -0 -0 -0 -0
-0 -0 -0 -0 -0 -0 -0 -0 -0 -0 -0 -0 -0 -0 -0 -0 -0 -0 -0 -0 -0 -0 -0 -0 -0 -0 -0 -0 -0 -0 -0 -0 -0 -0 -0 -0 -0 -0 -0 -0 -0 -0 -0 -0
-0 -0 -0 -0 -0 -0 -0 -0 -0 -0 -0 -0 -0 -0 -0 -0 -0 -0 -0 -0 -0 -0 -0 -0 -0 -0 -0 -0 -0 -0 -0 -0 -0 -0 -0 -0 -0 -0 -0 -0 -0 -0 -0 -0
-0 -0 -0 -0 -0 -0 -0 -0 -0 -0 -0 -0 -0 -0 -0 -0 -0 -0 -0 -0 -0 -0 -0 -0 -0 -0 -0 -0 -0 -0 -0 -0 -0 -0 -0 -0 -0 -0 -0 -0 -0 -0 -0 -0
-0 -0 -0 -0 -0 -0 -0 -0 -0 -0 -0 -0 -0 -0 -0 -0 -0 -0 -0 -0 -0 -0 -0 -0 -0 -0 -0 -0 -0 -0 -0 -0 -0 -0 -0 -0 -0 -0 -0 -0 -0 -0 -0 -0
-0 -0 -0 -0 -0 -0 -0 -0 -0 -0 -0 -0 -0 -0 -0 -0 -0 -0 -0 -0 -0 -0 -0 -0 -0 -0 -0 -0 -0 -0 -0 -0 -0 -0 -0 -0 -0 -0 -0 -0 -0 -0 -0 -0
-11 -0 -0 -0 -0 -0 -0 -0 -0 -0 -0 -0 -0 -0 -0 -0 -0 -0 -0 -0 -0 -0 -0 -0 -0 -0 -0 -0 -0 -0 -0 -0 -0 -0 -0 -0 -0 -0 -0 -0 -0 -0 -0 -0
-100 -0 -0 -0 -0 -0 -0 -0 -0 -0 -0 -0 -0 -0 -0 -0 -0 -0 -0 -0 -0 -0 -0 -0 -0 -0 -0 -0 -0 -0 -0 -0 -0 -0 -0 -0 -0 -0 -0 -0 -0 -0 -0 -0
-0 -0 -0 -0 -0 -0 -0 -0 -0 -0 -0 -0 -0 -0 -0 -0 -0 -0 -0 -0 -0 -0 -0 -0 -0 -0 -0 -0 -0 -0 -0 -0 -0 -0 -0 -0 -0 -0 -0 -0 -0 -0 -0 -0
-0 -0 -0 -0 -0 -0 -0 -0 -0 -0 -0 -0 -0 -0 -0 -0 -0 -0 -0 -0 -0 -0 -0 -0 -0 -0 -0 -0 -0 -0 -0 -0 -0 -0 -0 -0 -0 -0 -0 -0 -0 -0 -0 -0
Wind_Speed
29 40 42 34 29 24 24 25 26 26 25 26 26 27 25 22 21 15 13 13 11 9 16 17 13 9 7 6 5 5 3 2 2 5 7 10 12 14 16 18 20 22 22 21
31 46 35 30 30 27 25 28 27 24 25 26 30 32 31 24 23 19 16 13 11 15 18 17 15 12 9 7 7 6 6 4 5 5 8 11 9 12 13 16 19 20 21 20
39 35 33 31 30 30 29 30 28 26 22 23 27 36 37 34 31 26 21 17 14 12 13 14 13 11 11 9 8 7 6 5 4 6 8 9 10 11 13 14 17 19 19 19
32 27 34 33 31 29 30 27 24 23 24 30 27 35 33 32 34 31 25 13 13 17 17 15 12 10 10 9 8 7 7 6 5 5 7 8 10 12 13 12 14 16 17 17
30 31 34 39 35 27 27 21 21 21 23 26 29 32 32 26 29 22 15 18 17 17 14 11 9 8 9 9 8 8 8 8 8 7 7 8 9 11 10 11 13 14 15 16
25 22 28 35 32 28 19 18 19 22 26 38 34 32 34 27 23 23 24 23 22 20 17 15 12 9 9 9 8 8 9 9 8 8 7 7 8 8 9 10 11 12 13 14
29 28 24 24 24 27 30 26 29 32 33 37 27 32 39 25 24 26 29 24 21 19 16 14 12 11 10 10 10 10 10 10 10 9 8 7 7 7 8 8 9 10 11 14
36 38 31 26 26 27 28 31 31 37 37 35 28 36 33 26 31 29 28 21 19 17 15 12 11 11 11 10 11 11 10 11 12 10 9 7 6 7 8 7 8 9 11 12
35 36 29 26 26 26 31 34 24 26 27 34 34 37 37 33 32 28 24 19 17 16 14 12 10 10 10 11 11 10 11 13 12 10 8 7 7 6 7 7 7 8 10 12
24 32 31 29 24 25 29 24 33 32 40 44 37 37 34 26 28 26 23 20 17 15 13 12 10 10 11 11 12 12 11 11 11 9 7 7 6 6 5 5 6 7 10 12
24 26 30 29 36 32 26 32 31 29 34 42 44 41 29 31 28 25 22 20 19 15 14 12 10 10 11 12 12 12 9 9 9 8 7 6 6 5 5 5 6 8 10 12
22 23 31 33 26 31 34 33 32 37 39 36 37 43 25 25 26 22 22 19 20 14 10 10 10 11 12 12 12 11 9 8 7 6 6 5 5 4 5 7 8 10 10 12
26 25 28 31 35 31 36 35 32 29 30 38 40 40 27 24 22 20 21 18 16 12 11 10 12 12 12 10 9 8 7 7 6 5 5 5 4 4 5 7 9 9 10 12
24 28 31 35 30 28 37 34 31 32 39 35 37 34 28 23 22 20 20 19 18 13 11 13 13 12 10 8 7 7 7 6 6 5 5 4 4 5 7 7 8 9 10 11
26 38 35 31 30 26 32 36 36 40 36 37 40 39 30 24 22 23 22 22 20 18 15 15 15 12 9 8 7 7 7 6 5 5 5 5 4 6 8 10 10 11 11 11
21 31 29 33 31 31 35 35 36 39 38 42 37 39 32 35 28 27 25 23 23 21 18 17 14 11 10 9 8 8 7 7 7 7 7 5 7 7 9 10 10 11 11 11
24 24 29 37 29 30 41 41 37 37 39 39 47 42 33 34 32 28 26 26 24 22 20 16 13 10 10 9 8 8 8 7 8 8 7 6 7 10 11 11 10 11 11 11
23 23 25 32 28 43 34 25 28 35 37 37 43 36 33 34 32 30 26 26 26 23 20 18 14 12 10 8 6 6 7 9 10 10 8 9 10 10 10 10 11 10 10 11
23 21 26 34 36 32 31 27 22 27 39 34 39 35 32 32 31 33 29 28 28 27 23 16 11 7 6 8 7 8 8 8 10 10 10 11 9 8 11 12 12 12 12 13
25 25 25 22 35 39 23 24 18 17 39 26 23 26 26 25 33 34 28 26 23 20 23 10 7 5 5 6 6 7 8 10 11 10 10 9 9 10 12 13 14 14 15 16
23 25 30 29 32 30 28 20 12 26 22 18 20 24 25 23 25 22 20 20 20 17 12 11 5 4 4 6 4 7 8 10 9 10 12 12 13 15 16 16 16 16 16 17
24 24 28 28 34 40 20 15 18 22 19 18 18 20 19 20 21 19 17 15 15 13 14 10 6 3 8 10 5 6 8 12 14 16 18 17 18 20 20 19 19 18 18 20
28 27 25 26 27 23 22 25 23 21 18 18 19 19 18 15 15 13 11 11 11 11 9 7 3 4 10 11 9 6 9 14 15 17 20 20 19 19 18 18 19 20 20 23
27 26 28 28 26 29 30 27 28 24 24 24 22 18 14 11 10 9 10 9 8 9 8 9 8 9 10 12 12 13 13 15 17 21 22 21 20 19 19 19 20 21 22 23
30 27 32 35 38 35 29 25 27 27 25 22 20 18 15 10 9 9 9 8 7 7 9 9 11 11 12 15 15 17 16 16 19 20 22 22 22 21 22 22 22 21 21 21
32 32 34 36 27 29 33 31 33 29 26 23 21 19 16 13 10 9 8 9 8 8 9 11 12 14 17 19 21 22 22 22 24 25 26 25 24 23 23 23 24 22 22 22
Wind_Direction
224 219 223 224 227 231 232 237 237 244 248 249 253 256 260 258 262 259 255 258 255 245 279 281 279 275 266 255 218 215 226 285 327 331 329 331 334 342 347 350 351 352 354 357
222 222 232 229 232 232 232 234 238 245 250 250 249 255 257 263 264 263 259 258 261 277 282 282 279 274 261 245 234 243 261 273 297 317 326 329 338 345 353 354 354 355 357 1
223 232 230 227 226 226 235 234 236 243 246 255 256 254 252 255 261 266 269 271 274 270 278 285 279 270 265 247 243 253 266 276 295 321 330 338 344 347 346 351 354 357 2 5
231 239 223 225 227 229 235 238 238 240 242 249 255 255 257 257 258 262 205 233 250 277 284 286 278 268 257 259 266 274 284 292 299 305 310 308 317 325 335 345 356 360 4 7
233 230 223 224 227 231 237 236 238 243 246 252 254 258 260 265 261 262 238 270 273 275 273 267 262 261 269 269 270 280 291 302 305 300 301 304 315 327 340 346 349 359 4 8
239 242 231 229 233 233 224 229 240 247 250 251 252 257 262 262 265 272 276 283 286 282 280 278 278 277 273 277 278 283 292 302 307 305 299 298 307 319 329 336 344 353 0 4
236 238 241 230 220 227 233 229 241 245 248 253 260 259 261 271 274 275 278 284 288 291 281 275 263 262 266 269 279 289 294 300 306 303 300 299 306 314 322 333 343 351 356 356
229 231 233 235 230 232 226 229 238 242 249 255 261 261 268 273 270 275 282 284 287 288 288 279 271 269 270 274 280 288 292 299 305 305 302 304 307 314 323 333 342 348 352 356
235 239 242 240 239 236 238 239 249 255 264 262 262 268 273 272 272 275 279 282 281 283 286 289 284 275 275 280 284 288 294 301 303 301 299 299 304 310 317 329 340 349 355 357
243 240 242 239 243 249 246 239 246 253 254 259 266 270 272 278 273 274 274 273 274 281 289 292 290 283 285 288 291 295 298 297 299 299 297 299 304 310 320 332 340 349 353 354
242 246 241 239 243 240 242 243 250 256 259 260 265 270 279 277 278 272 269 270 272 281 288 289 289 289 290 293 292 293 294 294 292 295 298 298 302 309 320 330 338 344 346 349
243 248 240 242 256 251 248 248 246 251 255 262 268 269 290 286 283 272 270 271 275 285 289 291 292 293 293 293 293 291 291 287 285 287 288 291 299 305 313 324 330 335 341 346
235 248 241 247 252 254 246 247 250 255 264 261 265 271 281 288 283 277 273 275 278 288 291 295 296 295 295 295 292 288 284 282 283 281 278 281 280 291 307 318 326 333 339 342
241 249 248 244 256 244 246 247 250 252 256 261 263 273 276 276 278 277 275 278 282 290 294 296 297 294 294 292 288 285 279 275 270 265 258 245 253 286 303 314 320 326 331 336
247 248 251 256 258 257 254 249 248 249 254 259 265 264 272 272 271 275 276 278 285 291 293 294 292 289 286 284 283 279 271 259 251 241 230 235 260 292 305 312 315 319 322 328
247 251 251 253 260 258 258 256 253 253 256 259 266 267 269 271 279 279 276 280 283 286 290 291 287 281 276 275 275 271 257 252 248 235 223 251 278 288 298 305 308 311 314 322
240 252 251 252 262 262 259 256 256 259 257 259 260 265 273 272 272 274 270 279 281 285 288 286 278 267 269 267 265 253 251 249 222 215 237 248 277 290 298 301 303 302 306 315
246 249 259 258 259 257 265 275 264 260 263 260 264 270 269 271 274 275 276 281 282 282 285 282 282 279 272 269 240 237 218 206 206 213 241 269 280 292 296 294 293 294 299 305
247 246 256 254 255 271 273 270 272 266 267 266 266 270 273 276 279 277 277 278 278 279 280 277 273 241 224 207 214 212 215 227 226 234 257 276 278 281 291 291 293 294 297 301
250 247 250 259 257 259 282 272 280 280 275 283 277 278 274 274 273 276 279 278 277 277 277 254 223 224 248 255 246 226 222 213 217 243 254 267 277 286 289 292 292 295 296 299
252 248 246 253 261 271 269 288 284 270 289 298 295 286 278 269 273 285 291 288 280 279 273 284 258 234 263 299 259 214 217 217 245 268 278 285 289 292 297 299 297 294 294 298
257 256 252 255 259 263 275 274 273 283 288 294 302 303 294 279 279 283 288 293 292 289 287 298 287 301 316 310 289 252 251 287 292 293 294 295 298 300 301 299 297 296 295 296
259 257 261 257 262 273 278 273 273 283 287 292 296 300 302 300 292 294 295 297 304 316 320 319 320 315 313 315 311 295 294 299 300 299 299 300 301 299 299 296 295 295 294 296
261 259 262 268 266 269 275 283 273 279 282 285 288 299 308 310 303 296 291 298 318 320 336 340 341 324 319 318 317 316 313 309 307 305 306 307 307 306 303 300 299 297 295 297
260 257 260 264 266 273 273 278 279 279 281 282 286 287 294 296 296 293 293 307 321 331 331 342 346 342 331 325 324 318 317 316 313 312 311 310 310 309 306 303 300 298 299 297
257 259 260 267 266 267 270 280 275 278 277 281 284 284 283 289 296 297 300 300 307 318 329 331 330 328 325 323 320 317 316 314 312 310 310 309 309 308 307 305 303 303 301 300